EN

Hourly Weather Kysylyn

Today, 26 July, Monday

Time Temperature Precipitation Wind Pressure Humidity
00:00 +20°C° 0 mm 3 mps 744 mmHg 73%
01:00 +19°C° 0 mm 3 mps 744 mmHg 73%
02:00 +19°C° 0 mm 4 mps 743 mmHg 73%
03:00 +19°C° 0 mm 4 mps 743 mmHg 71%
04:00 +19°C° 0 mm 4 mps 743 mmHg 68%
05:00 +20°C° 0 mm 4 mps 743 mmHg 65%
06:00 +20°C° 0 mm 4 mps 743 mmHg 63%
07:00 +21°C° 0 mm 5 mps 743 mmHg 62%
08:00 +22°C° 0 mm 5 mps 743 mmHg 60%
09:00 +25°C° 0 mm 5 mps 743 mmHg 56%
10:00 +26°C° 0 mm 5 mps 743 mmHg 52%
11:00 +28°C° 0 mm 5 mps 744 mmHg 48%
12:00 +28°C° 0 mm 5 mps 743 mmHg 50%
13:00 +27°C° 0 mm 5 mps 743 mmHg 52%
14:00 +27°C° 0 mm 4 mps 743 mmHg 54%
15:00 +28°C° 0 mm 5 mps 743 mmHg 52%
16:00 +29°C° 0 mm 5 mps 743 mmHg 50%
17:00 +30°C° 0 mm 5 mps 742 mmHg 48%
18:00 +28°C° 0 mm 5 mps 742 mmHg 54%
19:00 +27°C° 0 mm 5 mps 742 mmHg 59%
20:00 +25°C° 0 mm 4 mps 742 mmHg 65%
21:00 +23°C° 0.8 mm 4 mps 742 mmHg 73%
22:00 +21°C° 0.8 mm 4 mps 742 mmHg 82%
23:00 +19°C° 0.8 mm 3 mps 743 mmHg 90%

Tomorrow, 27 July, Tuesday

Time Temperature Precipitation Wind Pressure Humidity
00:00 +19°C° 1 mm 3 mps 742 mmHg 91%
01:00 +18°C° 1 mm 3 mps 742 mmHg 92%
02:00 +18°C° 1 mm 2 mps 742 mmHg 93%
03:00 +18°C° 0.3 mm 3 mps 742 mmHg 93%
04:00 +18°C° 0.3 mm 3 mps 741 mmHg 92%
05:00 +17°C° 0.3 mm 3 mps 741 mmHg 92%
06:00 +19°C° 0 mm 3 mps 741 mmHg 87%
07:00 +21°C° 0 mm 4 mps 741 mmHg 82%
08:00 +23°C° 0 mm 4 mps 741 mmHg 76%
09:00 +26°C° 0 mm 4 mps 741 mmHg 68%
10:00 +28°C° 0 mm 4 mps 741 mmHg 59%
11:00 +32°C° 0 mm 4 mps 741 mmHg 51%
12:00 +32°C° 0 mm 5 mps 741 mmHg 50%
13:00 +32°C° 0 mm 5 mps 741 mmHg 49%
14:00 +33°C° 0 mm 6 mps 741 mmHg 48%
15:00 +32°C° 0 mm 5 mps 741 mmHg 50%
16:00 +30°C° 0 mm 5 mps 740 mmHg 53%
17:00 +30°C° 0 mm 5 mps 740 mmHg 56%
18:00 +28°C° 0.4 mm 4 mps 740 mmHg 65%
19:00 +26°C° 0.4 mm 3 mps 741 mmHg 73%
20:00 +24°C° 0.4 mm 3 mps 741 mmHg 82%
21:00 +23°C° 0.5 mm 2 mps 741 mmHg 85%
22:00 +23°C° 0.5 mm 2 mps 741 mmHg 89%
23:00 +21°C° 0.5 mm 2 mps 742 mmHg 92%

Day after tomorrow, 28 July, Wednesday

Time Temperature Precipitation Wind Pressure Humidity
00:00 +20°C° 0 mm 2 mps 742 mmHg 93%
01:00 +20°C° 0 mm 2 mps 742 mmHg 94%
02:00 +19°C° 0 mm 2 mps 742 mmHg 95%
03:00 +19°C° 0 mm 2 mps 742 mmHg 95%
04:00 +19°C° 0 mm 2 mps 742 mmHg 95%
05:00 +18°C° 0 mm 2 mps 742 mmHg 95%
06:00 +20°C° 0 mm 2 mps 742 mmHg 89%
07:00 +21°C° 0 mm 2 mps 742 mmHg 84%
08:00 +23°C° 0 mm 2 mps 743 mmHg 79%
09:00 +25°C° 0 mm 2 mps 743 mmHg 70%
10:00 +27°C° 0 mm 2 mps 743 mmHg 62%
11:00 +28°C° 0 mm 2 mps 743 mmHg 53%
12:00 +29°C° 0 mm 2 mps 742 mmHg 50%
13:00 +30°C° 0 mm 2 mps 742 mmHg 47%
14:00 +31°C° 0 mm 2 mps 742 mmHg 44%
15:00 +31°C° 0 mm 2 mps 742 mmHg 43%
16:00 +31°C° 0 mm 1 mps 742 mmHg 43%
17:00 +31°C° 0 mm 1 mps 741 mmHg 42%
18:00 +29°C° 0 mm 1 mps 741 mmHg 48%
19:00 +27°C° 0 mm 1 mps 741 mmHg 54%
20:00 +23°C° 0 mm 0 mps 741 mmHg 60%
21:00 +25°C° 0.1 mm 1 mps 741 mmHg 66%
22:00 +24°C° 0.1 mm 1 mps 741 mmHg 71%
23:00 +23°C° 0.1 mm 2 mps 741 mmHg 76%

29 July, Thursday

Time Temperature Precipitation Wind Pressure Humidity
00:00 +21°C° 0.3 mm 2 mps 741 mmHg 79%
01:00 +21°C° 0.3 mm 2 mps 740 mmHg 82%
02:00 +21°C° 0.3 mm 2 mps 740 mmHg 84%
03:00 +20°C° 0.6 mm 2 mps 740 mmHg 86%
04:00 +20°C° 0.6 mm 2 mps 740 mmHg 89%
05:00 +21°C° 0.6 mm 1 mps 740 mmHg 91%
06:00 +22°C° 0.2 mm 1 mps 740 mmHg 88%
07:00 +23°C° 0.2 mm 1 mps 740 mmHg 85%
08:00 +23°C° 0.2 mm 2 mps 740 mmHg 82%
09:00 +25°C° 0 mm 2 mps 741 mmHg 76%
10:00 +26°C° 0 mm 2 mps 741 mmHg 70%
11:00 +27°C° 0 mm 3 mps 741 mmHg 64%
12:00 +28°C° 0.1 mm 3 mps 741 mmHg 64%
13:00 +28°C° 0.1 mm 4 mps 741 mmHg 63%
14:00 +28°C° 0.1 mm 5 mps 741 mmHg 62%
15:00 +27°C° 0.3 mm 5 mps 741 mmHg 64%
16:00 +27°C° 0.3 mm 5 mps 741 mmHg 65%
17:00 +27°C° 0.3 mm 5 mps 741 mmHg 67%
18:00 +25°C° 0 mm 4 mps 741 mmHg 71%
19:00 +24°C° 0 mm 3 mps 741 mmHg 75%
20:00 +23°C° 0 mm 2 mps 741 mmHg 78%
21:00 +21°C° 0 mm 2 mps 741 mmHg 81%
22:00 +21°C° 0 mm 1 mps 741 mmHg 83%
23:00 +21°C° 0 mm 1 mps 741 mmHg 85%

30 July, Friday

Time Temperature Precipitation Wind Pressure Humidity
00:00 +20°C° 0 mm 1 mps 741 mmHg 86%
01:00 +19°C° 0 mm 2 mps 741 mmHg 87%
02:00 +18°C° 0 mm 2 mps 740 mmHg 88%
03:00 +18°C° 0 mm 2 mps 740 mmHg 88%
04:00 +18°C° 0 mm 2 mps 740 mmHg 89%
05:00 +19°C° 0 mm 1 mps 740 mmHg 89%
06:00 +19°C° 0 mm 2 mps 740 mmHg 82%
07:00 +21°C° 0 mm 2 mps 740 mmHg 75%
08:00 +24°C° 0 mm 2 mps 740 mmHg 68%
09:00 +26°C° 0 mm 3 mps 740 mmHg 63%
10:00 +27°C° 0 mm 3 mps 740 mmHg 57%
11:00 +29°C° 0 mm 4 mps 740 mmHg 51%
12:00 +30°C° 0 mm 4 mps 739 mmHg 48%
13:00 +32°C° 0 mm 4 mps 739 mmHg 45%
14:00 +33°C° 0 mm 4 mps 739 mmHg 43%
15:00 +33°C° 0 mm 4 mps 738 mmHg 43%
16:00 +33°C° 0 mm 3 mps 738 mmHg 43%
17:00 +33°C° 0 mm 3 mps 737 mmHg 44%
18:00 +30°C° 0 mm 3 mps 737 mmHg 52%
19:00 +28°C° 0 mm 3 mps 737 mmHg 60%
20:00 +26°C° 0 mm 3 mps 736 mmHg 67%
21:00 +24°C° 5.4 mm 3 mps 736 mmHg 76%
22:00 +21°C° 5.4 mm 2 mps 737 mmHg 85%
23:00 +20°C° 5.4 mm 1 mps 737 mmHg 94%

31 July, Saturday

Time Temperature Precipitation Wind Pressure Humidity
00:00 +19°C° 0.6 mm 2 mps 737 mmHg 94%
01:00 +19°C° 0.6 mm 2 mps 737 mmHg 95%
02:00 +19°C° 0.6 mm 3 mps 737 mmHg 95%
03:00 +18°C° 0 mm 3 mps 737 mmHg 95%
04:00 +18°C° 0 mm 3 mps 737 mmHg 95%
05:00 +18°C° 0 mm 3 mps 737 mmHg 95%
06:00 +19°C° 0 mm 3 mps 737 mmHg 91%
07:00 +21°C° 0 mm 3 mps 738 mmHg 87%
08:00 +22°C° 0 mm 3 mps 738 mmHg 82%
09:00 +25°C° 0 mm 4 mps 738 mmHg 74%
10:00 +26°C° 0 mm 4 mps 738 mmHg 66%
11:00 +28°C° 0 mm 4 mps 738 mmHg 57%
12:00 +28°C° 0 mm 5 mps 738 mmHg 54%
13:00 +28°C° 0 mm 5 mps 739 mmHg 51%
14:00 +28°C° 0 mm 5 mps 739 mmHg 48%
15:00 +28°C° 0 mm 5 mps 739 mmHg 49%
16:00 +27°C° 0 mm 5 mps 739 mmHg 50%
17:00 +27°C° 0 mm 4 mps 739 mmHg 51%
18:00 +25°C° 0 mm 4 mps 739 mmHg 56%
19:00 +22°C° 0 mm 3 mps 739 mmHg 61%
20:00 +20°C° 0 mm 2 mps 739 mmHg 66%
21:00 +20°C° 0 mm 2 mps 740 mmHg 67%
22:00 +19°C° 0 mm 2 mps 740 mmHg 68%
23:00 +19°C° 0 mm 1 mps 740 mmHg 69%
Show more